Leuchars, United Kingdom

4:51 AM BST on August 27, 2016 (GMT +0100)
Leuchars Air Base

Weather History for EGQL - January, 2013

Change the Weather History Date:

Sunday, January 13, 2013

  Actual Average Record
Temperature  
Mean Temperature 34 °F -  
Max Temperature 36 °F 43 °F 53 °F (1997)
Min Temperature 33 °F 33 °F 26 °F (2001)
Degree Days  
Heating Degree Days 30    
Moisture  
Dew Point 33 °F    
Average Humidity 90    
Maximum Humidity 93    
Minimum Humidity 82    
Precipitation  
Precipitation 0.08 in - - ()
Sea Level Pressure  
Sea Level Pressure 30.06 in    
Wind  
Wind Speed 5 mph ()    
Max Wind Speed 10 mph    
Max Gust Speed -    
Visibility 7.5 miles    
Events Rain , Snow    
Averages and records for this station are not official NWS values.
T = Trace of Precipitation, MM = Missing Value Source: Averaged Metar Reports

Daily Weather History Graph

Daily Weather History Graph

Search for Another Location

Airport or City:

Trip Planner

Search our weather history database for the weather conditions in past years. The results will help you decide how hot, cold, wet, or windy it might be!

Date:

Astronomy

Jan. 13, 2013 Rise Set
Actual Time 8:36 AM GMT 4:04 PM GMT
Civil Twilight 7:51 AM GMT 4:49 PM GMT
Nautical Twilight 7:03 AM GMT 5:37 PM GMT
Astronomical Twilight 6:18 AM GMT 6:22 PM GMT
Moon 8:55 AM GMT (1/13) 7:01 PM GMT (1/13)
Length of Visible Light 8h 58m
Length of Day
7h 27m
Waxing Crescent, 4% of the Moon is Illuminated
Jan 13
Waxing Crescent
Jan 18
First Quarter
Jan 27
Full
Feb 3
Last Quarter
Feb 10
New

Hourly Weather History & Observations

Time (GMT) Temp. Windchill Dew Point Humidity Pressure Visibility Wind Dir Wind Speed Gust Speed Precip Events Conditions
12:50 AM 35.6 °F 31.7 °F 32.0 °F 87% 30.12 in 6.2 mi SW 4.6 mph - N/A   Mostly Cloudy
1:50 AM 35.6 °F 31.7 °F 32.0 °F 87% 30.12 in 6.2 mi WSW 4.6 mph - N/A   Overcast
2:50 AM 35 °F - 32 °F 83% 30.14 in 12 mi WSW 3.5 mph - -   Overcast
2:50 AM 33.8 °F 30.8 °F 32.0 °F 93% 30.12 in 6.2 mi WSW 3.5 mph - N/A   Overcast
3:50 AM 35.6 °F - 32.0 °F 87% 30.12 in 6.2 mi WNW 2.3 mph - N/A   Overcast
4:50 AM 35.6 °F 29.9 °F 32.0 °F 87% 30.12 in 6.2 mi West 6.9 mph - N/A   Light Drizzle
5:50 AM 34 °F - 32 °F 88% 30.12 in 12 mi West 4.6 mph - - Rain Light Drizzle
5:50 AM 33.8 °F 29.6 °F 32.0 °F 93% 30.09 in 6.2 mi West 4.6 mph - N/A   Overcast
6:50 AM 33.8 °F 28.6 °F 32.0 °F 93% 30.09 in 6.2 mi WSW 5.8 mph - N/A Rain , Snow Light Rain
7:50 AM 33.8 °F - 32.0 °F 93% 30.09 in 6.2 mi Calm Calm - N/A   Mostly Cloudy
8:50 AM 34 °F - 32 °F 88% 30.13 in 12 mi SW 2.3 mph - -   Partly Cloudy
8:50 AM 33.8 °F - 32.0 °F 93% 30.12 in 6.2 mi SW 2.3 mph - N/A   Mostly Cloudy
9:50 AM 35.6 °F 28.6 °F 32.0 °F 87% 30.12 in 6.2 mi SW 9.2 mph - N/A Rain , Snow Light Rain
10:50 AM 35.6 °F 28.0 °F 32.0 °F 87% 30.09 in 6.2 mi SW 10.4 mph - N/A Rain Light Rain
11:50 AM 36 °F - 33 °F 82% 30.10 in 12 mi SSW 5.8 mph - - Rain Light Rain
11:50 AM 35.6 °F 30.7 °F 32.0 °F 87% 30.09 in 6.2 mi SSW 5.8 mph - N/A   Overcast
12:50 PM 35.6 °F 29.2 °F 32.0 °F 87% 30.06 in 6.2 mi SW 8.1 mph - N/A Rain Light Rain
1:50 PM 35.6 °F 29.9 °F 33.8 °F 93% 30.06 in 6.2 mi SSW 6.9 mph - N/A Rain , Snow Light Rain
2:50 PM 35 °F - 33 °F 91% 30.06 in 6 mi WSW 6.9 mph - - Snow Heavy Snow
2:50 PM 35.6 °F 29.9 °F 33.8 °F 93% 30.04 in 5.6 mi WSW 6.9 mph - N/A Rain , Snow Rain
3:31 PM 35.6 °F 32.8 °F 33.8 °F 93% 30.04 in 6.2 mi SW 3.5 mph - N/A Rain , Snow Light Rain
3:50 PM 35.6 °F 32.8 °F 33.8 °F 93% 30.04 in 6.2 mi SW 3.5 mph - N/A Rain , Snow Light Rain
4:50 PM 35.6 °F 31.7 °F 33.8 °F 93% 30.04 in 6.2 mi SSW 4.6 mph - N/A Rain , Snow Light Rain
5:50 PM 36 °F - 33 °F 86% 30.04 in 16 mi WSW 5.8 mph - -   Light Ice Pellets
5:50 PM 35.6 °F 30.7 °F 33.8 °F 93% 30.01 in 6.2 mi WSW 5.8 mph - N/A   Overcast
6:50 PM 35.6 °F 30.7 °F 33.8 °F 93% 30.01 in 6.2 mi West 5.8 mph - N/A   Overcast
7:50 PM 35.6 °F 32.8 °F 33.8 °F 93% 30.01 in 6.2 mi West 3.5 mph - N/A   Overcast
8:50 PM 36 °F - 34 °F 87% 30.01 in 12 mi West 8.1 mph - -   Overcast
8:50 PM 35.6 °F 29.2 °F 33.8 °F 93% 30.01 in 6.2 mi West 8.1 mph - N/A   Overcast
9:50 PM 35.6 °F 29.9 °F 33.8 °F 93% 29.98 in 6.2 mi WNW 6.9 mph - N/A   Overcast
10:50 PM 35.6 °F 30.7 °F 33.8 °F 93% 29.98 in 6.2 mi West 5.8 mph - N/A   Overcast
11:50 PM 35 °F - 34 °F 93% 29.98 in 12 mi WSW 9.2 mph - -   Overcast
11:50 PM 35.6 °F 28.6 °F 33.8 °F 93% 29.98 in 6.2 mi WSW 9.2 mph - N/A   Overcast